Theta_e
308 308 309 310 309 309 310 310 310 311 312 314 315 315 316 315 314 314 316 320 321 319 317 317 320 321 320 319 320 321 318 319 321 326 331 337 335 334 333 331 338 346 341 346 348
309 309 309 309 310 310 310 310 311 312 314 316 315 316 316 314 314 317 323 323 320 317 316 318 322 322 321 320 321 320 317 320 321 323 333 336 336 336 334 337 342 346 347 347 349
309 310 311 311 310 310 310 311 311 314 316 315 316 316 316 316 321 325 325 319 317 318 317 321 321 322 321 321 320 319 319 321 322 324 330 335 334 334 340 341 342 347 342 347 347
311 311 311 311 311 311 311 311 313 315 316 315 316 316 316 316 320 321 320 317 318 319 319 321 323 323 319 318 322 319 320 320 322 325 335 334 334 329 338 342 342 341 337 341 346
311 311 311 311 311 311 312 312 314 316 316 315 316 317 315 316 319 322 318 317 319 320 321 322 322 323 319 320 320 318 320 322 323 323 327 330 324 324 329 341 339 336 337 334 336
310 311 311 311 311 311 311 313 314 316 316 315 316 316 315 319 321 320 319 319 320 320 320 320 321 321 321 319 319 321 321 322 323 324 323 323 323 328 334 338 335 335 334 332 333
311 311 311 311 311 311 311 312 314 316 317 316 315 316 316 320 323 320 320 319 320 320 319 320 320 321 321 318 321 321 321 319 322 323 322 325 321 321 333 336 334 333 331 331 332
310 311 311 316 317 317 316 312 313 315 316 316 315 316 320 323 323 321 319 319 319 320 319 320 320 320 321 321 320 319 318 317 318 321 322 322 319 322 327 333 333 331 331 330 330
311 315 318 318 318 318 318 315 312 313 314 314 315 320 322 323 321 319 319 319 319 320 320 320 320 320 320 316 315 314 318 318 317 318 320 318 318 323 324 325 327 327 331 331 331
315 318 318 318 319 319 320 322 317 312 313 315 315 317 322 322 320 320 320 320 319 320 321 321 320 314 311 313 316 318 318 318 317 318 317 318 317 320 324 323 322 324 332 332 332
315 317 318 319 319 322 323 323 323 322 316 319 322 322 323 321 321 322 321 320 320 320 318 320 316 316 315 315 317 318 318 318 319 321 318 318 319 321 322 322 321 321 330 332 333
316 316 318 319 320 322 323 324 321 321 321 322 323 323 323 322 321 322 321 320 320 319 320 318 318 319 317 318 318 318 317 318 320 321 322 322 322 322 322 323 324 324 331 332 333
316 316 318 319 322 324 325 323 326 325 323 324 326 325 322 321 321 322 322 322 321 320 319 319 321 321 321 320 321 319 322 322 323 321 320 321 320 325 325 326 326 326 325 332 333
319 316 316 318 323 322 324 323 323 324 323 328 327 324 323 322 322 322 323 323 322 323 322 321 322 322 321 322 321 322 322 322 321 319 319 320 320 325 324 325 326 328 331 332 333
314 316 316 318 321 325 324 323 323 327 335 330 322 323 323 322 323 323 323 323 323 322 323 323 323 323 323 323 323 322 322 322 322 320 318 323 324 323 325 325 325 327 331 332 333
312 317 317 319 324 325 324 323 323 327 333 325 323 322 322 322 322 323 323 323 323 323 323 325 325 323 323 323 323 322 320 321 320 317 322 324 325 324 325 327 329 330 330 331 332
312 313 316 319 324 324 323 324 323 328 329 326 321 321 320 321 322 322 323 322 322 323 323 325 325 324 324 323 321 319 321 323 325 323 326 324 327 325 325 324 328 330 328 330 330
312 313 317 318 325 324 324 321 326 328 329 325 323 322 323 324 322 324 323 323 325 324 323 325 325 324 324 324 323 323 320 322 328 326 325 325 327 325 323 324 328 328 327 327 326
312 313 314 326 326 324 325 324 325 329 326 326 323 324 326 327 326 325 325 327 325 323 325 324 325 325 324 323 322 322 321 319 322 321 321 325 326 325 322 320 321 320 320 321 318
311 314 326 326 325 324 321 323 327 326 325 324 325 327 327 327 327 325 328 327 327 324 323 324 323 324 326 325 324 324 321 324 321 326 328 327 328 327 321 319 317 317 315 316 315
311 314 326 325 324 323 319 322 324 325 324 324 324 325 325 327 326 326 328 326 325 324 325 324 324 326 325 326 326 323 324 324 323 326 326 326 324 322 319 320 316 316 314 314 313
309 314 322 323 320 320 317 321 324 327 324 324 324 325 326 326 326 325 329 327 324 324 326 324 323 325 326 324 325 325 327 322 324 325 324 322 320 317 317 316 315 315 313 313 313
309 317 319 321 316 315 320 325 323 324 324 324 325 323 323 325 324 325 326 325 324 325 322 320 319 320 319 317 321 324 324 325 323 318 321 322 321 321 320 317 316 315 314 314 314
311 318 321 321 319 320 320 320 319 321 323 322 322 322 321 322 323 325 326 326 323 321 322 321 320 319 319 321 322 324 324 324 324 322 324 322 323 322 319 315 316 315 314 313 312
314 320 318 316 317 317 318 317 318 320 321 322 322 323 324 324 324 324 326 325 323 320 321 320 323 325 325 326 326 325 324 324 324 322 323 322 324 320 315 315 315 314 313 312 311
320 321 320 319 318 316 317 318 318 320 322 321 321 322 323 324 325 324 324 323 325 324 324 321 323 325 326 326 324 324 322 322 322 322 320 318 318 315 316 316 315 314 314 313 313
316 319 319 318 317 315 315 318 320 320 320 319 319 320 323 324 323 323 323 322 322 320 319 319 320 321 323 324 323 320 321 321 320 319 318 317 316 316 316 315 314 314 313 312 310
Wind_Speed
1 1 1 2 2 2 2 2 2 1 0 1 4 8 11 11 10 10 6 2 5 11 12 9 5 8 8 5 5 5 3 4 6 2 7 8 6 9 15 7 20 17 26 37 35
3 2 3 3 2 1 1 2 1 1 1 2 6 10 12 11 8 7 3 6 7 8 7 5 5 11 2 4 3 3 4 8 8 4 5 12 13 16 5 17 12 24 32 33 40
5 5 4 3 2 1 1 1 2 2 1 4 7 11 12 9 9 5 2 3 3 4 2 5 11 11 4 8 5 1 5 6 3 9 18 17 5 13 15 8 31 35 36 43 44
5 5 4 3 3 2 1 1 2 3 1 5 8 11 11 6 0 5 7 3 1 3 4 6 8 9 6 6 13 3 24 19 11 7 12 13 18 14 22 17 36 35 40 42 41
3 3 3 3 3 2 1 1 3 3 2 5 9 11 8 6 6 2 5 1 1 4 8 11 15 10 3 5 7 6 23 26 17 8 16 20 7 7 18 34 31 29 29 30 40
2 2 2 2 2 2 2 1 2 3 4 6 8 11 9 5 3 4 3 3 3 9 14 15 11 17 11 6 2 8 17 3 11 5 8 18 11 7 22 35 32 32 29 29 37
2 2 2 3 3 3 2 2 3 4 5 6 8 12 10 9 2 2 5 5 5 10 13 11 13 16 15 8 18 15 4 4 1 4 4 25 3 9 29 38 36 32 32 41 42
4 3 4 4 5 5 5 3 4 6 6 7 9 12 8 3 8 7 6 8 13 13 12 11 12 17 7 14 11 6 5 6 6 1 4 8 6 5 25 30 32 27 37 42 44
5 5 4 5 7 7 6 4 3 5 6 8 9 7 8 3 5 6 11 13 12 9 12 10 12 7 5 3 6 8 4 5 11 8 6 4 5 8 23 26 27 28 41 43 42
5 4 4 6 6 5 6 6 4 3 5 7 11 9 3 5 6 4 6 6 5 4 9 9 4 3 5 5 4 7 4 6 7 10 8 7 7 7 27 28 29 28 35 39 44
4 3 5 5 4 4 7 8 6 1 5 10 13 13 19 3 4 2 4 5 8 9 3 9 3 6 11 7 6 3 5 6 5 5 4 2 6 8 10 10 14 17 35 33 34
7 4 4 4 2 6 10 9 7 7 10 16 18 21 19 15 6 9 7 7 2 6 2 4 7 14 7 10 6 3 2 6 4 9 5 3 2 2 9 8 19 20 25 28 34
10 5 4 4 4 6 10 10 10 8 4 15 11 14 12 8 4 7 8 3 4 4 4 5 6 2 4 5 7 4 5 4 2 6 6 7 6 12 7 23 19 7 22 36 41
14 7 4 3 3 10 11 12 11 11 4 6 4 6 10 8 3 5 2 3 5 3 6 2 7 5 7 5 3 4 1 5 5 5 1 5 3 5 7 12 13 24 18 27 29
15 9 4 3 4 13 16 12 10 3 3 3 4 4 11 7 3 4 2 3 2 4 5 6 5 2 4 1 3 5 2 4 2 2 3 6 5 5 5 8 8 15 14 13 18
15 10 5 4 4 13 14 14 8 5 3 3 7 6 4 9 5 11 6 4 4 3 3 5 11 3 2 2 5 4 4 7 5 2 3 4 4 4 3 3 5 17 21 16 14
14 10 6 7 3 11 11 7 5 3 7 2 5 5 6 5 4 6 5 2 2 2 4 5 6 5 9 6 7 10 7 4 5 5 4 3 4 5 2 5 7 18 24 18 10
14 11 6 6 3 9 14 5 3 4 5 3 5 3 4 2 2 1 4 1 7 4 3 2 5 6 8 2 4 1 6 4 2 2 5 5 4 3 3 15 23 24 21 20 16
15 9 5 5 2 4 4 4 5 3 4 6 6 7 7 7 4 4 6 5 6 6 5 3 4 6 8 5 2 4 2 4 4 3 3 2 2 4 7 11 17 18 20 21 27
15 11 6 4 6 1 5 4 3 6 4 5 5 5 3 6 7 7 5 5 3 9 7 4 3 3 6 6 6 5 3 5 4 2 3 2 2 4 6 6 8 14 24 30 29
13 5 3 3 5 1 3 5 6 9 3 3 2 2 2 1 3 3 2 2 4 3 10 2 3 6 4 2 4 5 3 4 4 4 4 1 4 4 7 5 8 18 26 30 26
9 3 5 3 3 2 2 4 8 13 4 4 3 3 2 3 3 4 3 2 1 1 2 0 3 2 5 6 1 4 3 4 5 5 2 4 4 5 4 12 23 24 27 23 19
18 7 7 4 2 3 6 4 4 5 3 2 3 4 4 2 4 3 5 4 1 3 2 0 2 3 8 7 6 4 7 4 4 3 3 4 4 1 10 18 16 22 20 15 11
8 4 7 8 13 2 5 4 7 13 5 4 4 7 6 6 3 2 5 5 5 5 5 4 3 5 5 6 4 6 10 6 5 3 5 5 5 4 8 12 17 18 12 11 9
4 3 6 3 7 9 3 4 3 6 8 15 6 6 4 6 6 6 5 3 6 2 2 4 2 2 4 5 4 5 9 8 4 7 5 5 6 3 7 11 13 13 11 9 9
6 6 8 9 10 9 6 4 6 3 3 6 5 6 8 5 2 2 4 3 2 1 2 3 2 2 4 5 6 6 9 5 6 5 11 16 9 5 14 14 9 9 8 8 11
7 4 3 6 7 5 3 6 8 1 7 12 8 4 6 2 3 8 9 8 5 6 4 4 4 3 4 5 5 5 7 12 12 11 6 6 3 8 5 7 6 6 3 2 3
Wind_Direction
23 204 187 193 206 209 227 253 261 253 270 326 324 326 323 318 305 287 262 238 301 329 317 319 295 328 278 263 240 202 70 299 265 255 237 218 190 179 168 196 168 187 170 165 160
70 102 124 136 146 173 220 238 227 176 154 323 330 334 331 329 314 257 260 295 320 327 319 297 337 333 285 253 232 139 120 232 210 238 190 205 191 170 149 154 159 143 145 155 158
85 99 107 111 113 123 185 202 181 167 181 324 334 339 334 330 328 339 277 314 348 320 258 279 309 324 280 258 266 234 221 271 286 286 198 189 229 156 145 159 155 151 150 159 159
84 88 88 84 76 69 75 156 168 172 268 322 336 346 338 327 351 347 329 13 305 303 297 301 330 342 331 333 301 301 281 268 287 198 153 170 200 164 174 172 155 153 155 155 153
74 72 62 53 45 39 57 174 180 193 281 321 339 351 344 310 287 263 313 163 231 309 315 318 314 308 245 256 297 209 266 268 260 151 159 174 156 137 153 160 158 158 164 167 160
51 47 43 33 18 2 351 251 201 227 278 317 335 341 333 285 263 72 68 164 321 309 319 322 311 335 268 283 208 308 299 317 174 105 109 123 150 109 155 160 164 169 167 166 170
32 40 37 22 9 359 341 277 223 239 270 309 323 329 305 261 310 235 356 319 349 323 312 328 331 341 333 318 329 312 314 16 0 172 148 141 15 165 171 170 171 172 161 159 166
37 50 54 37 8 352 334 293 242 245 267 294 310 320 279 270 303 252 276 291 311 290 281 325 319 324 304 312 331 353 46 13 294 229 234 159 230 231 166 171 178 163 159 161 165
56 78 56 24 10 9 3 343 281 254 260 281 303 316 282 287 263 203 243 274 299 334 246 285 293 293 323 46 2 12 282 309 307 221 178 136 218 196 183 179 183 165 163 163 165
57 52 22 7 16 24 6 356 338 274 266 275 265 298 285 304 190 179 238 280 260 295 299 287 261 16 2 71 232 264 348 299 266 281 168 178 193 177 186 193 196 187 165 170 172
29 1 352 354 2 2 9 23 4 31 264 262 285 269 292 359 257 286 233 238 274 285 262 305 84 253 247 220 246 222 235 236 290 342 71 69 68 236 218 219 208 202 176 170 163
10 335 327 332 317 342 350 335 360 334 296 291 282 273 275 282 285 286 196 220 204 248 336 3 238 241 228 280 226 242 3 340 317 342 83 137 134 38 346 288 223 218 165 156 161
6 342 306 309 334 350 339 350 20 356 279 301 248 248 254 236 262 302 213 273 248 309 275 185 262 165 179 14 11 43 72 17 73 327 18 44 11 20 8 26 27 36 185 177 168
3 347 314 295 326 344 23 8 350 319 47 278 194 251 244 217 293 158 216 325 340 317 335 328 337 22 42 61 74 46 312 43 32 60 278 45 254 13 329 7 22 30 134 155 155
357 349 316 242 333 11 3 359 341 332 22 219 200 189 181 171 159 210 216 183 279 284 66 271 294 255 84 203 48 227 309 30 349 49 113 341 90 257 360 353 342 16 69 102 125
354 344 291 241 2 1 351 327 316 46 267 246 162 186 163 219 225 195 204 213 288 297 8 288 338 115 98 32 58 305 19 38 37 56 33 251 113 326 13 273 311 68 78 91 102
347 336 292 251 358 358 353 345 44 120 311 34 195 175 195 218 252 190 163 241 163 38 317 354 349 355 25 17 7 53 51 344 359 6 234 204 46 239 359 8 80 113 106 122 132
341 334 289 223 27 346 350 49 65 271 299 30 351 153 198 204 210 122 140 15 25 59 63 89 336 18 331 289 226 108 133 155 256 247 265 5 128 179 145 108 111 118 119 127 155
338 329 300 174 164 334 338 57 215 294 323 349 353 47 358 359 109 44 78 38 33 23 110 37 299 330 11 350 44 312 338 188 128 6 71 216 330 317 78 69 87 93 104 106 103
342 343 65 182 192 188 73 237 265 328 356 22 41 46 47 4 26 17 48 339 111 37 84 330 341 310 304 349 20 78 250 37 21 27 312 288 236 212 105 125 114 97 91 106 96
343 343 81 58 195 313 149 234 291 305 108 96 146 27 5 74 66 39 26 337 29 37 78 60 110 286 6 28 276 342 35 60 124 146 210 260 265 231 157 155 115 89 97 100 97
4 346 99 342 358 46 156 219 297 285 65 4 80 57 60 66 59 55 139 184 131 349 81 268 140 310 270 280 90 134 142 111 115 269 215 150 271 359 93 93 81 94 93 95 91
341 311 16 286 64 314 305 317 336 324 47 66 72 57 38 50 39 354 158 206 116 81 124 242 28 7 345 351 2 18 339 121 143 90 219 152 230 22 89 72 80 105 101 93 77
348 357 346 67 40 87 5 344 347 353 19 60 63 72 28 353 51 309 353 41 81 101 101 91 104 148 196 234 223 312 326 286 141 156 224 221 172 218 76 96 93 89 96 98 67
349 299 11 334 342 335 47 325 1 352 9 32 48 66 54 33 19 10 19 105 39 109 63 94 179 221 239 263 311 296 312 301 268 229 171 224 132 113 123 124 124 117 113 70 41
356 0 344 302 333 358 356 337 329 325 34 12 59 72 82 95 108 310 333 12 203 96 98 16 255 327 274 273 303 305 297 61 19 48 65 84 69 79 115 112 100 76 57 21 4
3 318 319 326 357 30 344 306 314 117 80 69 70 65 73 87 351 329 316 283 224 175 194 129 120 67 277 338 333 12 340 86 75 52 71 67 46 154 110 105 109 93 45 42 15